Mount Sterling, KY

3:10 AM EDT on August 20, 2017 (GMT -0400)
Mount Sterling-Montgomery County

Weather History for KIOB - July, 2012

Change the Weather History Date:

Friday, July 6, 2012

  Actual Average Record
Temperature  
Mean Temperature 84 °F -  
Max Temperature 96 °F 84 °F 87 °F (2016)
Min Temperature 71 °F 63 °F 55 °F (2014)
Cooling Degree Days 18    
Growing Degree Days 34 (Base 50)    
Moisture  
Dew Point 68 °F    
Average Humidity 53    
Maximum Humidity 83    
Minimum Humidity 34    
Precipitation  
Precipitation 0.00 in - - ()
Sea Level Pressure  
Sea Level Pressure 30.02 in    
Wind  
Wind Speed 2 mph ()    
Max Wind Speed 7 mph    
Max Gust Speed -    
Visibility 10.0 miles    
Events      
Averages and records for this station are not official NWS values.
T = Trace of Precipitation, MM = Missing Value Source: Averaged Metar Reports

Daily Weather History Graph

Daily Weather History Graph

Search for Another Location

Airport or City:

Trip Planner

Search our weather history database for the weather conditions in past years. The results will help you decide how hot, cold, wet, or windy it might be!

Date:

Astronomy

Jul. 06, 2012 Rise Set
Actual Time 6:19 AM EDT 9:01 PM EDT
Civil Twilight 5:48 AM EDT 9:32 PM EDT
Nautical Twilight 5:09 AM EDT 10:11 PM EDT
Astronomical Twilight 4:25 AM EDT 10:55 PM EDT
Moon 10:54 PM EDT (7/6) 9:34 AM EDT (7/6)
Length of Visible Light 15h 44m
Length of Day
14h 41m
Waning Gibbous, 89% of the Moon is Illuminated
Jul 6
Waning Gibbous
Jul 10
Last Quarter
Jul 19
New
Jul 26
First Quarter
Aug 1
Full

Hourly Weather History & Observations

Time (EDT) Temp. Heat Index Dew Point Humidity Pressure Visibility Wind Dir Wind Speed Gust Speed Precip Events Conditions
8:35 AM 71.6 °F - 64.4 °F 78% 30.06 in 10.0 mi WSW 4.6 mph - N/A   Clear
8:55 AM 73.4 °F - 64.4 °F 73% 30.06 in 10.0 mi SW 4.6 mph - N/A   Clear
9:15 AM 75.2 °F - 64.4 °F 69% 30.06 in - Calm Calm - N/A   Clear
9:35 AM 77.0 °F - 66.2 °F 69% 30.06 in - West 3.5 mph - N/A   Clear
9:55 AM 80.6 °F 82.7 °F 66.2 °F 61% 30.06 in - West 3.5 mph - N/A   Clear
10:15 AM 80.6 °F 82.7 °F 66.2 °F 61% 30.06 in - WSW 3.5 mph - N/A   Clear
10:35 AM 82.4 °F 84.6 °F 66.2 °F 58% 30.05 in - SW 3.5 mph - N/A   Clear
10:55 AM 84.2 °F 87.3 °F 68.0 °F 58% 30.05 in - Calm Calm - N/A   Clear
11:15 AM 86.0 °F 89.4 °F 68.0 °F 55% 30.05 in - Calm Calm - N/A   Clear
11:35 AM 86.0 °F 89.4 °F 68.0 °F 55% 30.05 in - Calm Calm - N/A   Clear
11:55 AM 87.8 °F 91.4 °F 68.0 °F 52% 30.05 in 10.0 mi Calm Calm - N/A   Clear
12:15 PM 89.6 °F 94.7 °F 69.8 °F 52% 30.05 in 10.0 mi Calm Calm - N/A   Clear
12:35 PM 89.6 °F 93.4 °F 68.0 °F 49% 30.05 in 10.0 mi East 5.8 mph - N/A   Clear
12:55 PM 91.4 °F 95.4 °F 68.0 °F 46% 30.05 in 10.0 mi ENE 3.5 mph - N/A   Clear
1:15 PM 93.2 °F 97.7 °F 68.0 °F 44% 30.04 in 10.0 mi NNE 3.5 mph - N/A   Clear
1:35 PM 93.2 °F 98.8 °F 69.8 °F 46% 30.04 in 10.0 mi Calm Calm - N/A   Clear
1:55 PM 93.2 °F 97.7 °F 68.0 °F 44% 30.04 in 10.0 mi East 3.5 mph - N/A   Clear
2:15 PM 95.0 °F 98.5 °F 66.2 °F 39% 30.03 in 10.0 mi Calm Calm - N/A   Clear
2:35 PM 95.0 °F 99.5 °F 68.0 °F 41% 30.03 in 10.0 mi Calm Calm - N/A   Clear
2:55 PM 96.8 °F 101.8 °F 68.0 °F 39% 30.02 in 10.0 mi East 4.6 mph - N/A   Clear
3:15 PM 96.8 °F 101.8 °F 68.0 °F 39% 30.02 in 10.0 mi SSE 5.8 mph - N/A   Clear
3:35 PM 96.8 °F 101.8 °F 68.0 °F 39% 30.02 in 10.0 mi ENE 3.5 mph - N/A   Clear
4:15 PM 96.8 °F 101.8 °F 68.0 °F 39% 30.01 in 10.0 mi Calm Calm - N/A   Clear
4:35 PM 96.8 °F 101.8 °F 68.0 °F 39% 30.00 in 10.0 mi Calm Calm - N/A   Clear
4:55 PM 96.8 °F 101.8 °F 68.0 °F 39% 30.00 in 10.0 mi Calm Calm - N/A   Clear
5:15 PM 96.8 °F 101.8 °F 68.0 °F 39% 30.00 in 10.0 mi East 4.6 mph - N/A   Clear
5:35 PM 96.8 °F 100.7 °F 66.2 °F 37% 29.99 in 10.0 mi Calm Calm - N/A   Clear
5:55 PM 96.8 °F 99.0 °F 64.4 °F 34% 29.98 in 10.0 mi ESE 6.9 mph - N/A   Clear
6:15 PM 96.8 °F 101.8 °F 68.0 °F 39% 29.98 in 10.0 mi East 4.6 mph - N/A   Clear
6:35 PM 96.8 °F 100.7 °F 66.2 °F 37% 29.97 in 10.0 mi SSE 3.5 mph - N/A   Clear
6:55 PM 96.8 °F 101.8 °F 68.0 °F 39% 29.97 in 10.0 mi SE 6.9 mph - N/A   Clear
7:15 PM 96.8 °F 101.8 °F 68.0 °F 39% 29.97 in 10.0 mi ESE 5.8 mph - N/A   Clear
7:35 PM 96.8 °F 100.7 °F 66.2 °F 37% 29.98 in 10.0 mi SSE 4.6 mph - N/A   Clear
7:55 PM 95.0 °F 98.5 °F 66.2 °F 39% 29.98 in 10.0 mi South 3.5 mph - N/A   Clear
8:15 PM 95.0 °F 99.5 °F 68.0 °F 41% 29.98 in 10.0 mi SSE 3.5 mph - N/A   Clear
8:35 PM 93.2 °F 97.7 °F 68.0 °F 44% 29.98 in 10.0 mi Calm Calm - N/A   Clear
8:55 PM 87.8 °F 92.6 °F 69.8 °F 55% 29.98 in 10.0 mi Calm Calm - N/A   Clear
9:15 PM 87.8 °F 92.6 °F 69.8 °F 55% 29.99 in 10.0 mi Calm Calm - N/A   Clear
9:35 PM 84.2 °F 89.6 °F 71.6 °F 66% 29.99 in 10.0 mi Calm Calm - N/A   Clear
9:55 PM 80.6 °F 84.6 °F 71.6 °F 74% 30.00 in 10.0 mi Calm Calm - N/A   Clear
10:15 PM 80.6 °F 84.6 °F 71.6 °F 74% 30.01 in 10.0 mi Calm Calm - N/A   Clear
10:35 PM 78.8 °F - 71.6 °F 78% 30.02 in 10.0 mi SW 3.5 mph - N/A   Clear
10:55 PM 78.8 °F - 71.6 °F 78% 30.02 in 10.0 mi Calm Calm - N/A   Clear
11:15 PM 77.0 °F - 71.6 °F 83% 30.02 in 10.0 mi Calm Calm - N/A   Clear
11:35 PM 77.0 °F - 71.6 °F 83% 30.02 in 10.0 mi Calm Calm - N/A   Clear
11:55 PM 78.8 °F - 69.8 °F 74% 30.03 in 10.0 mi Calm Calm - N/A   Clear